,,,PA_Meas_PMT16A,,PR_Meas_QMR101_102,,RH_Meas_QMH101,,SR_Meas_QMS101,,TA_Meas_QMH101,,GenWind,,GenWind,
date,time,status,PA,status,PR,status,RH,status,SR,status,TA,status,DirAvg,status,SpdAvg,
2012-03-08, 00:00:05,VALID,1000.51,VALID,0,VALID,92.3781,VALID,0,VALID,25.0839,VALID,300,VALID,0.617578,
2012-03-08, 00:01:05,VALID,1000.49,VALID,0,VALID,92.3095,VALID,0,VALID,25.1053,VALID,289,VALID,0.575781,
2012-03-08, 00:02:05,VALID,1000.53,VALID,0,VALID,92.3247,VALID,0,VALID,25.1053,VALID,330,VALID,0.357812,
2012-03-08, 00:03:05,VALID,1000.52,VALID,0,VALID,92.3095,VALID,0,VALID,25.0858,VALID,330,VALID,0,
2012-03-08, 00:04:05,VALID,1000.5,VALID,0,VALID,92.2942,VALID,0,VALID,25.1053,VALID,343,VALID,0.226953,
2012-03-08, 00:05:05,VALID,1000.51,VALID,0,VALID,92.2637,VALID,0,VALID,25.0858,VALID,345,VALID,0.503906,
2012-03-08, 00:06:05,VALID,1000.5,VALID,0,VALID,92.2408,VALID,0,VALID,25.0644,VALID,345,VALID,0.514453,
2012-03-08, 00:07:05,VALID,1000.51,VALID,0,VALID,92.2027,VALID,0,VALID,25.0663,VALID,345,VALID,0.400391,
2012-03-08, 00:08:05,VALID,1000.5,VALID,0,VALID,92.2332,VALID,0,VALID,25.0255,VALID,345,VALID,0.407813,
2012-03-08, 00:09:05,VALID,1000.48,VALID,0,VALID,92.2637,VALID,0,VALID,25.0274,VALID,345,VALID,0,
2012-03-08, 00:10:05,VALID,1000.5,VALID,0,VALID,92.3095,VALID,0,VALID,25.0079,VALID,345,VALID,0,
2012-03-08, 00:11:05,VALID,1000.46,VALID,0,VALID,92.3171,VALID,0,VALID,24.9885,VALID,340,VALID,0.491016,
2012-03-08, 00:12:05,VALID,1000.45,VALID,0,VALID,92.3781,VALID,0,VALID,25.0098,VALID,346,VALID,0.433594,
2012-03-08, 00:13:05,VALID,1000.46,VALID,0,VALID,92.4163,VALID,0,VALID,24.9885,VALID,347,VALID,0.474219,
2012-03-08, 00:14:05,VALID,1000.42,VALID,0,VALID,92.4544,VALID,0,VALID,24.9476,VALID,329,VALID,0.316406,
2012-03-08, 00:15:05,VALID,1000.43,VALID,0,VALID,92.4544,VALID,0,VALID,24.9495,VALID,329,VALID,0,
2012-03-08, 00:16:05,VALID,1000.42,VALID,0,VALID,92.5307,VALID,0,VALID,24.9495,VALID,319,VALID,0.01875,
2012-03-08, 00:17:05,VALID,1000.39,VALID,0,VALID,92.5841,VALID,0,VALID,24.9282,VALID,316,VALID,0.536719,
2012-03-08, 00:18:05,VALID,1000.37,VALID,0,VALID,92.607,VALID,0,VALID,24.969,VALID,315,VALID,0.272266,
2012-03-08, 00:19:05,VALID,1000.32,VALID,0,VALID,92.6451,VALID,0,VALID,24.969,VALID,315,VALID,0,
2012-03-08, 00:20:05,VALID,1000.32,VALID,0,VALID,92.6375,VALID,0,VALID,24.9495,VALID,312,VALID,0.270312,
2012-03-08, 00:21:05,VALID,1000.31,VALID,0,VALID,92.7138,VALID,0,VALID,24.9495,VALID,312,VALID,0.0660156,
2012-03-08, 00:22:05,VALID,1000.31,VALID,0,VALID,92.6833,VALID,0,VALID,24.9495,VALID,312,VALID,0,
2012-03-08, 00:23:05,VALID,1000.3,VALID,0,VALID,92.668,VALID,0,VALID,24.969,VALID,312,VALID,0,
2012-03-08, 00:24:05,VALID,1000.31,VALID,0,VALID,92.6909,VALID,0,VALID,24.9709,VALID,312,VALID,0,
2012-03-08, 00:25:05,VALID,1000.31,VALID,0,VALID,92.7062,VALID,0,VALID,24.9495,VALID,312,VALID,0,
2012-03-08, 00:26:05,VALID,1000.29,VALID,0,VALID,92.6604,VALID,0,VALID,24.9514,VALID,312,VALID,0,
2012-03-08, 00:27:05,VALID,1000.27,VALID,0,VALID,92.6604,VALID,0,VALID,24.9106,VALID,312,VALID,0,
2012-03-08, 00:28:05,VALID,1000.28,VALID,0,VALID,92.6909,VALID,0,VALID,24.8911,VALID,312,VALID,0,
2012-03-08, 00:29:05,VALID,1000.28,VALID,0,VALID,92.729,VALID,0,VALID,24.9106,VALID,312,VALID,0,
2012-03-08, 00:30:05,VALID,1000.26,VALID,0,VALID,92.7367,VALID,0,VALID,24.8911,VALID,312,VALID,0,
2012-03-08, 00:31:05,VALID,1000.22,VALID,0,VALID,92.729,VALID,0,VALID,24.9125,VALID,312,VALID,0,
2012-03-08, 00:32:05,VALID,1000.22,VALID,0,VALID,92.7748,VALID,0,VALID,24.8911,VALID,312,VALID,0,
2012-03-08, 00:33:05,VALID,1000.15,VALID,0,VALID,92.729,VALID,0,VALID,24.8308,VALID,312,VALID,0,
2012-03-08, 00:34:05,VALID,1000.16,VALID,0,VALID,92.8358,VALID,0,VALID,24.8522,VALID,312,VALID,0,
2012-03-08, 00:35:05,VALID,1000.16,VALID,0,VALID,92.9045,VALID,0,VALID,24.8327,VALID,312,VALID,0,
2012-03-08, 00:36:05,VALID,1000.16,VALID,0,VALID,92.813,VALID,0,VALID,24.8522,VALID,312,VALID,0,
2012-03-08, 00:37:05,VALID,1000.13,VALID,0,VALID,92.668,VALID,0,VALID,24.8132,VALID,312,VALID,0,
2012-03-08, 00:38:05,VALID,1000.1,VALID,0,VALID,92.7443,VALID,0,VALID,24.7937,VALID,312,VALID,0,
2012-03-08, 00:39:05,VALID,1000.09,VALID,0,VALID,92.8664,VALID,0,VALID,24.8132,VALID,312,VALID,0,
2012-03-08, 00:40:05,VALID,1000.07,VALID,0,VALID,92.935,VALID,0,VALID,24.8113,VALID,312,VALID,0,
2012-03-08, 00:41:05,VALID,1000.08,VALID,0,VALID,93.0342,VALID,0,VALID,24.8522,VALID,312,VALID,0,
2012-03-08, 00:42:05,VALID,1000.06,VALID,0,VALID,93.0189,VALID,0,VALID,24.8716,VALID,312,VALID,0,
2012-03-08, 00:43:05,VALID,1000.02,VALID,0,VALID,93.0189,VALID,0,VALID,24.8308,VALID,312,VALID,0,
2012-03-08, 00:44:05,VALID,1000.02,VALID,0,VALID,93.0495,VALID,0,VALID,24.8522,VALID,311,VALID,0.129688,
2012-03-08, 00:45:05,VALID,999.989,VALID,0,VALID,92.935,VALID,0,VALID,24.8716,VALID,323,VALID,0.439844,
2012-03-08, 00:46:05,VALID,999.997,VALID,0,VALID,92.9426,VALID,0,VALID,24.8716,VALID,332,VALID,0,
2012-03-08, 00:47:05,VALID,999.945,VALID,0,VALID,93.0037,VALID,0,VALID,24.8716,VALID,332,VALID,0,
2012-03-08, 00:48:05,VALID,999.945,VALID,0,VALID,92.813,VALID,0,VALID,24.8716,VALID,334,VALID,0.0425781,
2012-03-08, 00:49:05,VALID,999.906,VALID,0,VALID,92.729,VALID,0,VALID,24.8327,VALID,334,VALID,0.352344,
2012-03-08, 00:50:05,VALID,999.884,VALID,0,VALID,92.6146,VALID,0,VALID,24.8132,VALID,339,VALID,0.332031,
2012-03-08, 00:51:05,VALID,999.876,VALID,0,VALID,92.6299,VALID,0,VALID,24.8151,VALID,339,VALID,0.208203,
2012-03-08, 00:52:05,VALID,999.874,VALID,0,VALID,92.5002,VALID,0,VALID,24.8132,VALID,343,VALID,0.140625,
2012-03-08, 00:53:05,VALID,999.861,VALID,0,VALID,92.5231,VALID,0,VALID,24.7724,VALID,343,VALID,0.00078125,
2012-03-08, 00:54:05,VALID,999.87,VALID,0,VALID,92.4315,VALID,0,VALID,24.7937,VALID,342,VALID,0.623828,
2012-03-08, 00:55:05,VALID,999.862,VALID,0,VALID,92.4544,VALID,0,VALID,24.7937,VALID,360,VALID,0.446094,
2012-03-08, 00:56:05,VALID,999.851,VALID,0,VALID,92.2408,VALID,0,VALID,24.7743,VALID,350,VALID,0.815234,
2012-03-08, 00:57:05,VALID,999.814,VALID,0,VALID,92.3018,VALID,0,VALID,24.7956,VALID,332,VALID,0.469531,
2012-03-08, 00:58:05,VALID,999.801,VALID,0,VALID,92.2332,VALID,0,VALID,24.7743,VALID,339,VALID,0.228125,
2012-03-08, 00:59:05,VALID,999.744,VALID,0,VALID,92.1645,VALID,0,VALID,24.7743,VALID,3,VALID,0.509766,
2012-03-08, 01:00:05,VALID,999.735,VALID,0,VALID,92.1187,VALID,0,VALID,24.7548,VALID,360,VALID,0.591797,
2012-03-08, 01:01:05,VALID,999.703,VALID,0,VALID,92.1187,VALID,0,VALID,24.7353,VALID,338,VALID,0.548047,
2012-03-08, 01:02:05,VALID,999.656,VALID,0,VALID,92.1721,VALID,0,VALID,24.7548,VALID,338,VALID,0.301172,
2012-03-08, 01:03:05,VALID,999.64,VALID,0,VALID,92.1874,VALID,0,VALID,24.7335,VALID,339,VALID,0.129297,
2012-03-08, 01:04:05,VALID,999.606,VALID,0,VALID,92.2332,VALID,0,VALID,24.7548,VALID,339,VALID,0.301562,
2012-03-08, 01:05:05,VALID,999.606,VALID,0,VALID,92.1111,VALID,0,VALID,24.7335,VALID,343,VALID,0.432422,
2012-03-08, 01:06:05,VALID,999.581,VALID,0,VALID,91.9814,VALID,0,VALID,24.7159,VALID,340,VALID,0.695313,
2012-03-08, 01:07:05,VALID,999.589,VALID,0,VALID,92.0119,VALID,0,VALID,24.6945,VALID,347,VALID,0.589063,
2012-03-08, 01:08:05,VALID,999.619,VALID,0,VALID,91.9814,VALID,0,VALID,24.7177,VALID,343,VALID,0.675781,
2012-03-08, 01:09:05,VALID,999.602,VALID,0,VALID,91.9738,VALID,0,VALID,24.6769,VALID,354,VALID,0.817187,
2012-03-08, 01:10:05,VALID,999.601,VALID,0,VALID,92.0882,VALID,0,VALID,24.6556,VALID,345,VALID,0.494531,
2012-03-08, 01:11:05,VALID,999.608,VALID,0,VALID,92.0806,VALID,0.0815089,VALID,24.675,VALID,346,VALID,0.706641,
2012-03-08, 01:12:05,VALID,999.595,VALID,0,VALID,91.9814,VALID,0.0815089,VALID,24.6148,VALID,345,VALID,0.478125,
2012-03-08, 01:13:05,VALID,999.605,VALID,0,VALID,92.1111,VALID,0.0815089,VALID,24.6166,VALID,345,VALID,0.310937,
2012-03-08, 01:14:05,VALID,999.633,VALID,0,VALID,92.2027,VALID,0.0815089,VALID,24.6148,VALID,339,VALID,0.373828,
2012-03-08, 01:15:05,VALID,999.595,VALID,0,VALID,92.195,VALID,0.0815089,VALID,24.6166,VALID,343,VALID,0.485547,
2012-03-08, 01:16:05,VALID,999.626,VALID,0,VALID,92.1798,VALID,0.0815089,VALID,24.6166,VALID,343,VALID,0.394531,
2012-03-08, 01:17:05,VALID,999.633,VALID,0,VALID,92.1187,VALID,0.0815089,VALID,24.5758,VALID,343,VALID,0.363672,
2012-03-08, 01:18:05,VALID,999.628,VALID,0,VALID,92.2027,VALID,0.0815089,VALID,24.5777,VALID,346,VALID,0.326953,
2012-03-08, 01:19:05,VALID,999.661,VALID,0,VALID,92.2332,VALID,0.0815089,VALID,24.5972,VALID,347,VALID,0.588672,
2012-03-08, 01:20:05,VALID,999.657,VALID,0,VALID,92.195,VALID,0.0815089,VALID,24.5564,VALID,346,VALID,0.599219,
2012-03-08, 01:21:05,VALID,999.693,VALID,0,VALID,92.2027,VALID,0.0815089,VALID,24.5777,VALID,348,VALID,0.477344,
2012-03-08, 01:22:05,VALID,999.718,VALID,0,VALID,92.2179,VALID,0.0815089,VALID,24.5582,VALID,357,VALID,0.589453,
2012-03-08, 01:23:05,VALID,999.734,VALID,0,VALID,92.2179,VALID,0.0815089,VALID,24.5369,VALID,354,VALID,0.436328,
2012-03-08, 01:24:05,VALID,999.761,VALID,0,VALID,92.2255,VALID,0.0815089,VALID,24.5582,VALID,352,VALID,0.24375,
2012-03-08, 01:25:05,VALID,999.791,VALID,0,VALID,92.1569,VALID,0,VALID,24.5406,VALID,351,VALID,0.230469,
2012-03-08, 01:26:05,VALID,999.797,VALID,0,VALID,92.1492,VALID,0,VALID,24.5406,VALID,351,VALID,0.461328,
2012-03-08, 01:27:05,VALID,999.794,VALID,0,VALID,92.1874,VALID,0,VALID,24.5406,VALID,351,VALID,0.290234,
2012-03-08, 01:28:05,VALID,999.792,VALID,0,VALID,92.1645,VALID,0,VALID,24.562,VALID,351,VALID,0.0820313,
2012-03-08, 01:29:05,VALID,999.85,VALID,0,VALID,92.1569,VALID,0,VALID,24.5388,VALID,351,VALID,0,
2012-03-08, 01:30:05,VALID,999.84,VALID,0,VALID,92.2103,VALID,0,VALID,24.5601,VALID,355,VALID,0.592188,
2012-03-08, 01:31:05,VALID,999.837,VALID,0,VALID,92.2332,VALID,0,VALID,24.5388,VALID,308,VALID,0.360547,
2012-03-08, 01:32:05,VALID,999.824,VALID,0,VALID,92.3018,VALID,0,VALID,24.5582,VALID,281,VALID,0.689453,
2012-03-08, 01:33:05,VALID,999.837,VALID,0,VALID,92.2255,VALID,0,VALID,24.5777,VALID,284,VALID,0.557813,
2012-03-08, 01:34:05,VALID,999.841,VALID,0,VALID,92.0501,VALID,0,VALID,24.599,VALID,311,VALID,0.733594,
2012-03-08, 01:35:05,VALID,999.828,VALID,0,VALID,92.2027,VALID,0,VALID,24.6166,VALID,311,VALID,0,
2012-03-08, 01:36:05,VALID,999.799,VALID,0,VALID,92.134,VALID,0,VALID,24.6166,VALID,311,VALID,0,
2012-03-08, 01:37:05,VALID,999.781,VALID,0,VALID,92.0196,VALID,0,VALID,24.638,VALID,338,VALID,0.287109,
2012-03-08, 01:38:05,VALID,999.785,VALID,0,VALID,92.0348,VALID,0,VALID,24.638,VALID,359,VALID,0.399219,
2012-03-08, 01:39:05,VALID,999.768,VALID,0,VALID,91.8288,VALID,0,VALID,24.599,VALID,357,VALID,0.273047,
2012-03-08, 01:40:05,VALID,999.767,VALID,0,VALID,92.0272,VALID,0,VALID,24.638,VALID,357,VALID,0.303125,
2012-03-08, 01:41:05,VALID,999.766,VALID,0,VALID,91.7754,VALID,0,VALID,24.599,VALID,354,VALID,0.471875,
2012-03-08, 01:42:05,VALID,999.772,VALID,0,VALID,91.8517,VALID,0,VALID,24.599,VALID,350,VALID,0.300391,
2012-03-08, 01:43:05,VALID,999.732,VALID,0,VALID,91.7525,VALID,0,VALID,24.5796,VALID,343,VALID,0.678125,
2012-03-08, 01:44:04,VALID,999.734,VALID,0,VALID,91.8365,VALID,0,VALID,24.5796,VALID,355,VALID,0.143359,
2012-03-08, 01:45:04,VALID,999.72,VALID,0,VALID,91.5695,VALID,0,VALID,24.5796,VALID,353,VALID,0.752344,
2012-03-08, 01:46:04,VALID,999.72,VALID,0,VALID,91.4626,VALID,0,VALID,24.5796,VALID,353,VALID,0.785937,
2012-03-08, 01:47:04,VALID,999.724,VALID,0,VALID,91.4932,VALID,0,VALID,24.5796,VALID,349,VALID,0.402734,
2012-03-08, 01:48:04,VALID,999.689,VALID,0,VALID,91.333,VALID,0.0815089,VALID,24.5582,VALID,354,VALID,1.08984,
2012-03-08, 01:49:04,VALID,999.677,VALID,0,VALID,91.2719,VALID,0,VALID,24.599,VALID,358,VALID,0.361719,
2012-03-08, 01:50:04,VALID,999.679,VALID,0,VALID,91.2109,VALID,0,VALID,24.6185,VALID,352,VALID,0.793359,
2012-03-08, 01:51:04,VALID,999.657,VALID,0,VALID,91.1499,VALID,0.0815089,VALID,24.6166,VALID,329,VALID,0.709375,
2012-03-08, 01:52:04,VALID,999.641,VALID,0,VALID,91.2109,VALID,0,VALID,24.6166,VALID,336,VALID,0.490625,
2012-03-08, 01:53:04,VALID,999.626,VALID,0,VALID,91.0965,VALID,0,VALID,24.638,VALID,339,VALID,0.673047,
2012-03-08, 01:54:04,VALID,999.65,VALID,0,VALID,90.9973,VALID,0,VALID,24.6185,VALID,347,VALID,0.861719,
2012-03-08, 01:55:04,VALID,999.638,VALID,0,VALID,91.1499,VALID,0,VALID,24.638,VALID,348,VALID,0.300781,
2012-03-08, 01:56:04,VALID,999.592,VALID,0,VALID,91.1804,VALID,0,VALID,24.638,VALID,349,VALID,0.0863281,
2012-03-08, 01:57:04,VALID,999.559,VALID,0,VALID,91.0507,VALID,0,VALID,24.6166,VALID,2,VALID,0.645312,
2012-03-08, 01:58:04,VALID,999.554,VALID,0,VALID,91.0049,VALID,0,VALID,24.638,VALID,348,VALID,0.338281,
2012-03-08, 01:59:04,VALID,999.53,VALID,0,VALID,91.0354,VALID,0,VALID,24.6185,VALID,348,VALID,0.173047,
2012-03-08, 02:00:04,VALID,999.493,VALID,0,VALID,90.9973,VALID,0,VALID,24.6185,VALID,348,VALID,0.00195313,
2012-03-08, 02:01:04,VALID,999.508,VALID,0,VALID,90.9057,VALID,0,VALID,24.6185,VALID,351,VALID,0.604688,
2012-03-08, 02:02:04,VALID,999.483,VALID,0,VALID,90.86,VALID,0,VALID,24.6185,VALID,360,VALID,0.420703,
2012-03-08, 02:03:04,VALID,999.45,VALID,0,VALID,90.8295,VALID,0,VALID,24.6166,VALID,360,VALID,0.317187,
2012-03-08, 02:04:04,VALID,999.44,VALID,0,VALID,90.8218,VALID,0,VALID,24.6166,VALID,360,VALID,0.451953,
2012-03-08, 02:05:04,VALID,999.428,VALID,0,VALID,90.8218,VALID,0,VALID,24.638,VALID,360,VALID,0.301953,
2012-03-08, 02:06:04,VALID,999.381,VALID,0,VALID,90.7532,VALID,0,VALID,24.5972,VALID,345,VALID,0.401563,
2012-03-08, 02:07:04,VALID,999.367,VALID,0,VALID,90.7913,VALID,0,VALID,24.6185,VALID,350,VALID,0.296094,
2012-03-08, 02:08:04,VALID,999.338,VALID,0,VALID,90.9515,VALID,0,VALID,24.638,VALID,350,VALID,0,
2012-03-08, 02:09:04,VALID,999.288,VALID,0,VALID,90.8829,VALID,0,VALID,24.638,VALID,359,VALID,0.733594,
2012-03-08, 02:10:04,VALID,999.264,VALID,0,VALID,90.7989,VALID,0,VALID,24.6398,VALID,351,VALID,0.356641,
2012-03-08, 02:11:04,VALID,999.26,VALID,0,VALID,90.86,VALID,0,VALID,24.638,VALID,345,VALID,0.392578,
2012-03-08, 02:12:04,VALID,999.231,VALID,0,VALID,90.654,VALID,0,VALID,24.638,VALID,314,VALID,0.403906,
2012-03-08, 02:13:04,VALID,999.19,VALID,0,VALID,90.5624,VALID,0,VALID,24.638,VALID,332,VALID,0.330469,
2012-03-08, 02:14:04,VALID,999.17,VALID,0,VALID,90.6158,VALID,0,VALID,24.6788,VALID,335,VALID,0.00507812,
2012-03-08, 02:15:04,VALID,999.165,VALID,0,VALID,90.5701,VALID,0,VALID,24.6574,VALID,335,VALID,0.464844,
2012-03-08, 02:16:04,VALID,999.157,VALID,0,VALID,90.5853,VALID,0,VALID,24.6166,VALID,351,VALID,0.598047,
2012-03-08, 02:17:04,VALID,999.106,VALID,0,VALID,90.654,VALID,0,VALID,24.6166,VALID,351,VALID,0.220703,
2012-03-08, 02:18:04,VALID,999.122,VALID,0,VALID,90.6387,VALID,0,VALID,24.6185,VALID,354,VALID,0.311719,
2012-03-08, 02:19:04,VALID,999.106,VALID,0,VALID,90.654,VALID,0,VALID,24.599,VALID,347,VALID,0.428125,
2012-03-08, 02:20:04,VALID,999.091,VALID,0,VALID,90.8523,VALID,0,VALID,24.599,VALID,347,VALID,0,
2012-03-08, 02:21:04,VALID,999.074,VALID,0,VALID,90.6845,VALID,0,VALID,24.599,VALID,349,VALID,0.130469,
2012-03-08, 02:22:04,VALID,999.066,VALID,0,VALID,90.6082,VALID,0,VALID,24.5796,VALID,351,VALID,0.286328,
2012-03-08, 02:23:04,VALID,999.078,VALID,0,VALID,90.7989,VALID,0,VALID,24.599,VALID,351,VALID,0.297266,
2012-03-08, 02:24:04,VALID,999.1,VALID,0,VALID,90.715,VALID,0,VALID,24.599,VALID,350,VALID,0.532031,
2012-03-08, 02:25:04,VALID,999.108,VALID,0,VALID,90.7303,VALID,0.0815089,VALID,24.5972,VALID,350,VALID,0.46875,
2012-03-08, 02:26:04,VALID,999.111,VALID,0,VALID,90.6921,VALID,0.0815089,VALID,24.5972,VALID,345,VALID,0.624609,
2012-03-08, 02:27:04,VALID,999.132,VALID,0,VALID,90.8905,VALID,0.0815089,VALID,24.5972,VALID,344,VALID,0.60625,
2012-03-08, 02:28:04,VALID,999.169,VALID,0,VALID,90.7379,VALID,0,VALID,24.5777,VALID,352,VALID,1.06055,
2012-03-08, 02:29:04,VALID,999.178,VALID,0,VALID,90.4862,VALID,0.0815089,VALID,24.5582,VALID,351,VALID,0.835938,
2012-03-08, 02:30:04,VALID,999.155,VALID,0,VALID,90.5701,VALID,0,VALID,24.5564,VALID,350,VALID,0.466406,
2012-03-08, 02:31:04,VALID,999.176,VALID,0,VALID,90.4938,VALID,0.0815089,VALID,24.5777,VALID,339,VALID,0.498047,
2012-03-08, 02:32:04,VALID,999.195,VALID,0,VALID,90.6235,VALID,0,VALID,24.5777,VALID,347,VALID,0.392578,
2012-03-08, 02:33:04,VALID,999.18,VALID,0,VALID,90.5624,VALID,0.0815089,VALID,24.5777,VALID,350,VALID,0.435547,
2012-03-08, 02:34:04,VALID,999.156,VALID,0,VALID,90.6464,VALID,0.0815089,VALID,24.5564,VALID,357,VALID,0.839063,
2012-03-08, 02:35:04,VALID,999.14,VALID,0,VALID,90.6921,VALID,0.0815089,VALID,24.5369,VALID,357,VALID,0.514844,
2012-03-08, 02:36:04,VALID,999.13,VALID,0,VALID,90.6006,VALID,0.0815089,VALID,24.5777,VALID,355,VALID,0.723828,
2012-03-08, 02:37:04,VALID,999.122,VALID,0,VALID,90.593,VALID,0.0815089,VALID,24.5582,VALID,353,VALID,0.68125,
2012-03-08, 02:38:04,VALID,999.103,VALID,0,VALID,90.6464,VALID,0.0815089,VALID,24.5582,VALID,353,VALID,0.414063,
2012-03-08, 02:39:04,VALID,999.101,VALID,0,VALID,90.6311,VALID,0.0815089,VALID,24.5582,VALID,353,VALID,0.644141,
2012-03-08, 02:40:04,VALID,999.066,VALID,0,VALID,90.6158,VALID,0,VALID,24.5406,VALID,353,VALID,0.377734,
2012-03-08, 02:41:04,VALID,999.044,VALID,0,VALID,90.4099,VALID,0,VALID,24.5406,VALID,4,VALID,0.460938,
2012-03-08, 02:42:04,VALID,999.026,VALID,0,VALID,90.3107,VALID,0,VALID,24.5212,VALID,359,VALID,0.566797,
2012-03-08, 02:43:04,VALID,999.047,VALID,0,VALID,90.3412,VALID,0,VALID,24.5212,VALID,357,VALID,0.388672,
2012-03-08, 02:44:04,VALID,999.022,VALID,0,VALID,90.387,VALID,0,VALID,24.5212,VALID,355,VALID,0.273438,
2012-03-08, 02:45:04,VALID,999.031,VALID,0,VALID,90.4709,VALID,0,VALID,24.5212,VALID,355,VALID,0.292969,
2012-03-08, 02:46:04,VALID,998.989,VALID,0,VALID,90.4556,VALID,0,VALID,24.5212,VALID,354,VALID,0.460938,
2012-03-08, 02:47:04,VALID,999.007,VALID,0,VALID,90.5014,VALID,0,VALID,24.5212,VALID,353,VALID,0.628516,
2012-03-08, 02:48:04,VALID,999.028,VALID,0,VALID,90.593,VALID,0,VALID,24.4998,VALID,353,VALID,0.628125,
2012-03-08, 02:49:04,VALID,999.021,VALID,0,VALID,90.715,VALID,0,VALID,24.5017,VALID,344,VALID,0.674219,
2012-03-08, 02:50:04,VALID,999.016,VALID,0,VALID,90.7303,VALID,0,VALID,24.4609,VALID,347,VALID,0.618359,
2012-03-08, 02:51:04,VALID,999.034,VALID,0,VALID,90.6845,VALID,0,VALID,24.4414,VALID,337,VALID,1.03203,
2012-03-08, 02:52:04,VALID,999.037,VALID,0,VALID,90.715,VALID,0,VALID,24.4414,VALID,349,VALID,0.896484,
2012-03-08, 02:53:04,VALID,999.049,VALID,0,VALID,90.6845,VALID,0,VALID,24.4628,VALID,354,VALID,1.06367,
2012-03-08, 02:54:04,VALID,999.065,VALID,0.5,VALID,90.7532,VALID,0,VALID,24.4822,VALID,11,VALID,0.66875,
2012-03-08, 02:55:04,VALID,999.048,VALID,0,VALID,90.6998,VALID,0,VALID,24.4822,VALID,4,VALID,1.18047,
2012-03-08, 02:56:04,VALID,999.065,VALID,0,VALID,90.7532,VALID,0,VALID,24.4628,VALID,341,VALID,0.786719,
2012-03-08, 02:57:04,VALID,999.039,VALID,0,VALID,90.7684,VALID,0,VALID,24.4822,VALID,343,VALID,1.15547,
2012-03-08, 02:58:04,VALID,999.025,VALID,0,VALID,90.8371,VALID,0,VALID,24.4822,VALID,1,VALID,0.5,
2012-03-08, 02:59:04,VALID,999,VALID,0,VALID,90.8829,VALID,0.0815089,VALID,24.4609,VALID,344,VALID,0.3625,
2012-03-08, 03:00:04,VALID,999.006,VALID,0,VALID,90.9973,VALID,0,VALID,24.4628,VALID,344,VALID,0.223438,
2012-03-08, 03:01:04,VALID,999.025,VALID,0,VALID,91.0583,VALID,0,VALID,24.422,VALID,346,VALID,0.347266,
2012-03-08, 03:02:04,VALID,999.028,VALID,0,VALID,91.0278,VALID,0,VALID,24.4238,VALID,345,VALID,0.675781,
2012-03-08, 03:03:04,VALID,999.06,VALID,0,VALID,91.1728,VALID,0,VALID,24.4433,VALID,345,VALID,0.096875,
2012-03-08, 03:04:04,VALID,999.06,VALID,0,VALID,91.2185,VALID,0,VALID,24.4025,VALID,345,VALID,0.219922,
2012-03-08, 03:05:04,VALID,999.074,VALID,0,VALID,91.2643,VALID,0,VALID,24.4025,VALID,345,VALID,0.108594,
2012-03-08, 03:06:04,VALID,999.081,VALID,0,VALID,91.3253,VALID,0,VALID,24.383,VALID,345,VALID,0.267578,
2012-03-08, 03:07:04,VALID,999.051,VALID,0,VALID,91.5389,VALID,0,VALID,24.383,VALID,345,VALID,0.326172,
2012-03-08, 03:08:04,VALID,999.092,VALID,0,VALID,91.7068,VALID,0,VALID,24.4043,VALID,345,VALID,0.114844,
2012-03-08, 03:09:04,VALID,999.088,VALID,0,VALID,91.6763,VALID,0,VALID,24.3636,VALID,345,VALID,0.357422,
2012-03-08, 03:10:04,VALID,999.088,VALID,0,VALID,91.6839,VALID,0,VALID,24.3654,VALID,345,VALID,0.35,
2012-03-08, 03:11:04,VALID,999.083,VALID,0,VALID,91.8365,VALID,0,VALID,24.3052,VALID,345,VALID,0.297266,
2012-03-08, 03:12:04,VALID,999.023,VALID,0,VALID,91.9738,VALID,0,VALID,24.3052,VALID,345,VALID,0.294531,
2012-03-08, 03:13:04,VALID,999.007,VALID,0,VALID,91.9662,VALID,0,VALID,24.307,VALID,345,VALID,0.501172,
2012-03-08, 03:14:04,VALID,998.993,VALID,0,VALID,92.0653,VALID,0,VALID,24.2468,VALID,345,VALID,0.500391,
2012-03-08, 03:15:04,VALID,998.969,VALID,0,VALID,92.1798,VALID,0,VALID,24.2681,VALID,345,VALID,0.386328,
2012-03-08, 03:16:04,VALID,998.972,VALID,0,VALID,92.2179,VALID,0,VALID,24.2681,VALID,345,VALID,0.423047,
2012-03-08, 03:17:04,VALID,998.944,VALID,0,VALID,92.2713,VALID,0,VALID,24.206,VALID,345,VALID,0.431641,
2012-03-08, 03:18:04,VALID,998.931,VALID,0,VALID,92.3247,VALID,0,VALID,24.2078,VALID,345,VALID,0.279297,
2012-03-08, 03:19:04,VALID,998.946,VALID,0,VALID,92.4315,VALID,0,VALID,24.2078,VALID,345,VALID,0.268359,
2012-03-08, 03:20:04,VALID,998.932,VALID,0,VALID,92.3323,VALID,0,VALID,24.2078,VALID,345,VALID,0.442187,
2012-03-08, 03:21:04,VALID,998.931,VALID,0,VALID,92.3781,VALID,0,VALID,24.2097,VALID,345,VALID,0.514453,
2012-03-08, 03:22:04,VALID,998.926,VALID,0,VALID,92.2408,VALID,0,VALID,24.1902,VALID,345,VALID,0.516406,
2012-03-08, 03:23:04,VALID,998.921,VALID,0,VALID,92.2484,VALID,0,VALID,24.1902,VALID,344,VALID,0.428906,
2012-03-08, 03:24:04,VALID,998.911,VALID,0,VALID,92.3476,VALID,0,VALID,24.1689,VALID,344,VALID,0.0847656,
2012-03-08, 03:25:04,VALID,998.928,VALID,0,VALID,92.3323,VALID,0,VALID,24.1902,VALID,344,VALID,0.315234,
2012-03-08, 03:26:04,VALID,998.922,VALID,0,VALID,92.34,VALID,0,VALID,24.1689,VALID,344,VALID,0.508203,
2012-03-08, 03:27:04,VALID,998.935,VALID,0,VALID,92.2255,VALID,0,VALID,24.1689,VALID,347,VALID,0.726563,
2012-03-08, 03:28:04,VALID,998.947,VALID,0,VALID,92.1721,VALID,0,VALID,24.1902,VALID,334,VALID,0.244922,
2012-03-08, 03:29:04,VALID,998.956,VALID,0,VALID,92.2332,VALID,0,VALID,24.2097,VALID,334,VALID,0.50625,
2012-03-08, 03:30:04,VALID,998.969,VALID,0,VALID,92.3247,VALID,0,VALID,24.2486,VALID,334,VALID,0.339453,
2012-03-08, 03:31:04,VALID,999,VALID,0,VALID,92.2027,VALID,0,VALID,24.2273,VALID,336,VALID,0.380859,
2012-03-08, 03:32:04,VALID,999.032,VALID,0,VALID,92.134,VALID,0,VALID,24.2078,VALID,337,VALID,0.427734,
2012-03-08, 03:33:04,VALID,999.05,VALID,0,VALID,92.2637,VALID,0,VALID,24.2486,VALID,341,VALID,0.424609,
2012-03-08, 03:34:04,VALID,999.044,VALID,0,VALID,92.0806,VALID,0,VALID,24.2273,VALID,356,VALID,1.15273,
2012-03-08, 03:35:04,VALID,999.087,VALID,0,VALID,92.0348,VALID,0,VALID,24.2291,VALID,340,VALID,0.900781,
2012-03-08, 03:36:04,VALID,999.076,VALID,0,VALID,91.9051,VALID,0,VALID,24.2273,VALID,357,VALID,1.40313,
2012-03-08, 03:37:04,VALID,999.089,VALID,0,VALID,91.7373,VALID,0,VALID,24.2662,VALID,13,VALID,1.2793,
2012-03-08, 03:38:04,VALID,999.101,VALID,0,VALID,91.127,VALID,0,VALID,24.3052,VALID,23,VALID,1.47422,
2012-03-08, 03:39:04,VALID,999.12,VALID,0,VALID,90.8523,VALID,0,VALID,24.4238,VALID,33,VALID,1.57344,
2012-03-08, 03:40:04,VALID,999.09,VALID,0,VALID,90.3183,VALID,0,VALID,24.5212,VALID,13,VALID,1.56562,
2012-03-08, 03:41:04,VALID,999.108,VALID,0,VALID,90.0894,VALID,0,VALID,24.5582,VALID,345,VALID,1.12031,
2012-03-08, 03:42:04,VALID,999.088,VALID,0,VALID,89.9445,VALID,0,VALID,24.6166,VALID,353,VALID,1.22539,
2012-03-08, 03:43:04,VALID,999.076,VALID,0,VALID,89.7156,VALID,0,VALID,24.6574,VALID,358,VALID,0.950391,
2012-03-08, 03:44:04,VALID,999.044,VALID,0,VALID,89.6699,VALID,0,VALID,24.6769,VALID,358,VALID,0.833203,